Weather History for Hayward, WI

Change the Weather History Date:

Thursday, March 28, 2013

  Actual Average Record
Temperature  
Mean Temperature 28 °F -  
Max Temperature 46 °F 37 °F 63 °F (2005)
Min Temperature 12 °F 13 °F -8 °F (1970)
Degree Days  
Heating Degree Days 36    
Moisture  
Dew Point 14 °F    
Average Humidity 58    
Maximum Humidity 88    
Minimum Humidity 26    
Precipitation  
Precipitation 0.00 in - - ()
Sea Level Pressure  
Sea Level Pressure 30.35 in    
Wind  
Wind Speed 1 mph (North)    
Max Wind Speed 5 mph    
Max Gust Speed -    
Visibility 10 miles    
Events      
Averages and records for this station are not official NWS values.
T = Trace of Precipitation, MM = Missing Value Source: NWS Daily Summary

Daily Weather History Graph

Daily Weather History Graph

Search for Another Location

Airport:

Trip Planner

Search our weather history database for the weather conditions in past years. The results will help you decide how hot, cold, wet, or windy it might be!

Date:

Astronomy

Mar. 28, 2013 Rise Set
Actual Time 6:52 AM CDT 7:29 PM CDT
Civil Twilight 6:22 AM CDT 7:59 PM CDT
Nautical Twilight 5:47 AM CDT 8:35 PM CDT
Astronomical Twilight 5:10 AM CDT 9:12 PM CDT
Moon 9:30 PM CDT (3/28) 7:14 AM CDT (3/28)
Length of Visible Light 13h 36m
Length of Day
12h 36m
Full, 98% of the Moon is Illuminated
Mar 28
Full
Apr 2
Last Quarter
Apr 10
New
Apr 18
First Quarter
Apr 25
Full

Hourly Weather History & Observations

Time (CDT) Temp. Windchill Dew Point Humidity Pressure Visibility Wind Dir Wind Speed Gust Speed Precip Events Conditions
12:53 AM 19.0 °F - 15.1 °F 85% 30.36 in 10.0 mi Calm Calm - N/A   Clear
1:53 AM 18.0 °F - 12.9 °F 81% 30.36 in 10.0 mi Calm Calm - N/A   Clear
2:53 AM 17.1 °F - 12.9 °F 84% 30.36 in 10.0 mi Calm Calm - N/A   Clear
3:53 AM 15.1 °F - 10.9 °F 84% 30.37 in 10.0 mi Calm Calm - N/A   Clear
4:53 AM 12.9 °F - 9.0 °F 84% 30.36 in 10.0 mi Calm Calm - N/A   Clear
5:53 AM 12.9 °F - 8.1 °F 81% 30.36 in 10.0 mi Calm Calm - N/A   Clear
6:53 AM 12.0 °F - 7.0 °F 80% 30.38 in 10.0 mi Calm Calm - N/A   Clear
7:53 AM 14.0 °F - 10.9 °F 88% 30.39 in 10.0 mi Calm Calm - N/A   Clear
8:53 AM 25.0 °F - 18.0 °F 75% 30.38 in 10.0 mi Calm Calm - N/A   Clear
9:53 AM 30.9 °F - 18.0 °F 59% 30.38 in 10.0 mi Calm Calm - N/A   Clear
10:53 AM 37.9 °F - 17.1 °F 43% 30.37 in 10.0 mi Calm Calm - N/A   Clear
11:53 AM 42.1 °F 40.2 °F 12.9 °F 31% 30.36 in 10.0 mi Variable 3.5 mph - N/A   Clear
12:53 PM 44.1 °F 42.5 °F 14.0 °F 30% 30.35 in 10.0 mi Variable 3.5 mph - N/A   Clear
1:53 PM 45.0 °F 42.6 °F 14.0 °F 29% 30.34 in 10.0 mi Variable 4.6 mph - N/A   Clear
2:53 PM 44.1 °F 42.5 °F 12.0 °F 27% 30.32 in 10.0 mi Variable 3.5 mph - N/A   Clear
3:53 PM 45.0 °F 42.6 °F 12.9 °F 27% 30.31 in 10.0 mi Variable 4.6 mph - N/A   Clear
4:53 PM 45.0 °F - 12.0 °F 26% 30.30 in 10.0 mi Calm Calm - N/A   Clear
5:53 PM 45.0 °F - 14.0 °F 29% 30.30 in 10.0 mi Calm Calm - N/A   Clear
6:53 PM 43.0 °F - 12.0 °F 28% 30.31 in 10.0 mi Calm Calm - N/A   Clear
7:53 PM 33.1 °F - 16.0 °F 50% 30.32 in 10.0 mi Calm Calm - N/A   Clear
8:53 PM 30.0 °F - 16.0 °F 56% 30.33 in 10.0 mi Calm Calm - N/A   Clear
9:53 PM 28.0 °F - 16.0 °F 61% 30.34 in 10.0 mi Calm Calm - N/A   Clear
10:53 PM 25.0 °F - 18.0 °F 75% 30.33 in 10.0 mi Calm Calm - N/A   Clear
11:53 PM 23.0 °F - 17.1 °F 78% 30.33 in 10.0 mi Calm Calm - N/A   Clear